This is the latest recevied weather packets stored in our database for station/object K4PAD. If no packets are shown the sender has not sent any weather packets the latest 10 day(s).
| Time | Temp. | Humidity | Pressure | Rain* | Wind** | Luminosity | Snow |
|---|---|---|---|---|---|---|---|
| 1777811835 | 14.44° C | 98% | 1020.3 hPa | 0 mm | - | 181 W/m² | - |
| 1777811533 | 14.44° C | 98% | 1020.2 hPa | 0 mm | - | 208 W/m² | - |
| 1777811228 | 14.44° C | 98% | 1020.2 hPa | 0 mm | - | 128 W/m² | - |
| 1777810926 | 13.89° C | 99% | 1020.2 hPa | 0 mm | - | 98 W/m² | - |
| 1777810622 | 13.89° C | 99% | 1020 hPa | 0 mm | - | 87 W/m² | - |
| 1777810319 | 13.89° C | 99% | 1019.9 hPa | 0 mm | - | 92 W/m² | - |
| 1777810014 | 13.33° C | 99% | 1019.8 hPa | 0 mm | - | 85 W/m² | - |
| 1777809713 | 13.33° C | 99% | 1019.8 hPa | 0 mm | - | 59 W/m² | - |
| 1777809410 | 13.33° C | 99% | 1019.9 hPa | 0 mm | - | 69 W/m² | - |
| 1777809108 | 12.78° C | 99% | 1020 hPa | 0 mm | - | 46 W/m² | - |
| 1777808805 | 12.78° C | 99% | 1019.9 hPa | 0 mm | - | 42 W/m² | - |
| 1777808502 | 12.78° C | 99% | 1019.7 hPa | 0 mm | - | 44 W/m² | - |
| 1777808199 | 12.78° C | 99% | 1019.9 hPa | 0 mm | - | 41 W/m² | - |
| 1777807898 | 12.78° C | 99% | 1019.6 hPa | 0 mm | - | 37 W/m² | - |
| 1777807596 | 12.22° C | 99% | 1019.5 hPa | 0 mm | - | 35 W/m² | - |
| 1777807292 | 12.22° C | 99% | 1019.6 hPa | 0 mm | - | 29 W/m² | - |
| 1777806988 | 12.22° C | 99% | 1019.5 hPa | 0 mm | - | 25 W/m² | - |
| 1777806685 | 12.22° C | 99% | 1019.6 hPa | 0 mm | - | 22 W/m² | - |
| 1777806381 | 12.22° C | 99% | 1019.4 hPa | 0 mm | - | 18 W/m² | - |
| 1777806078 | 12.22° C | 99% | 1019.5 hPa | 0 mm | - | 15 W/m² | - |
| 1777805774 | 12.22° C | 99% | 1019.1 hPa | 0 mm | - | 11 W/m² | - |
| 1777805472 | 12.22° C | 99% | 1019 hPa | 0 mm | - | 8 W/m² | - |
| 1777805170 | 12.22° C | 99% | 1019.2 hPa | 0 mm | - | 5 W/m² | - |
| 1777804868 | 12.22° C | 99% | 1019 hPa | 0 mm | - | 3 W/m² | - |
| 1777804565 | 12.78° C | 99% | 1018.9 hPa | 0 mm | - | 1 W/m² | - |
* Rain latest hour (hover to see other rain measurements)
** Current wind speed in m/s (hover to see current wind gust speed)